Charlevoix, MI

4:03 AM EDT on September 21, 2017 (GMT -0400)
Charlevoix Municipal

Weather History for KCVX - December, 2010

Change the Weather History Date:

Thursday, December 2, 2010

  Actual Average Record
Temperature  
Mean Temperature 30 °F -  
Max Temperature 32 °F 41 °F 48 °F (2012)
Min Temperature 28 °F 32 °F 8 °F (2014)
Degree Days  
Heating Degree Days 35    
Moisture  
Dew Point 24 °F    
Average Humidity 78    
Maximum Humidity 93    
Minimum Humidity 69    
Precipitation  
Precipitation 0.00 in - - ()
Sea Level Pressure  
Sea Level Pressure 29.95 in    
Wind  
Wind Speed 16 mph (West)    
Max Wind Speed 23 mph    
Max Gust Speed 28 mph    
Visibility 7 miles    
Events Snow    
Averages and records for this station are not official NWS values.
T = Trace of Precipitation, MM = Missing Value Source: NWS Daily Summary

Daily Weather History Graph

Daily Weather History Graph

Search for Another Location

Airport or City:

Trip Planner

Search our weather history database for the weather conditions in past years. The results will help you decide how hot, cold, wet, or windy it might be!

Date:

Astronomy

Dec. 02, 2010 Rise Set
Actual Time 8:01 AM EST 4:59 PM EST
Civil Twilight 7:27 AM EST 5:33 PM EST
Nautical Twilight 6:50 AM EST 6:09 PM EST
Astronomical Twilight 6:15 AM EST 6:45 PM EST
Moon 4:32 AM EST (12/2) 2:39 PM EST (12/2)
Length of Visible Light 10h 05m
Length of Day
8h 58m
Waning Crescent, 11% of the Moon is Illuminated
Dec 2
Waning Crescent
Dec 5
New
Dec 13
First Quarter
Dec 21
Full
Dec 27
Last Quarter

Hourly Weather History & Observations

Time (EST) Temp. Windchill Dew Point Humidity Pressure Visibility Wind Dir Wind Speed Gust Speed Precip Events Conditions
12:15 AM 32.0 °F 20.1 °F 24.8 °F 75% 29.79 in 7.0 mi West 19.6 mph 25.3 mph N/A Snow Light Snow
12:35 AM 32.0 °F 19.8 °F 24.8 °F 75% 29.79 in 10.0 mi West 20.7 mph 26.5 mph N/A Snow Light Snow
12:55 AM 32.0 °F 21.6 °F 24.8 °F 75% 29.80 in 10.0 mi WNW 15.0 mph 26.5 mph N/A   Overcast
1:15 AM 32.0 °F 20.1 °F 24.8 °F 75% 29.80 in 10.0 mi West 19.6 mph 24.2 mph N/A   Overcast
1:35 AM 32.0 °F 19.8 °F 24.8 °F 75% 29.82 in 10.0 mi West 20.7 mph 27.6 mph N/A Snow Light Snow
1:55 AM 32.0 °F 21.2 °F 24.8 °F 75% 29.82 in 10.0 mi West 16.1 mph - N/A   Overcast
2:15 AM 32.0 °F 19.2 °F 26.6 °F 80% 29.83 in 10.0 mi West 23.0 mph - N/A   Overcast
2:35 AM 32.0 °F 21.2 °F 26.6 °F 80% 29.84 in 5.0 mi West 16.1 mph 23.0 mph N/A Snow Light Snow
2:54 AM 32.0 °F 20.5 °F 26.6 °F 80% 29.85 in 5.0 mi West 18.4 mph 27.6 mph N/A Snow Light Snow
3:15 AM 30.2 °F 18.9 °F 26.6 °F 86% 29.86 in 5.0 mi West 16.1 mph 20.7 mph N/A Snow Light Snow
3:35 AM 32.0 °F 20.5 °F 24.8 °F 75% 29.86 in 5.0 mi West 18.4 mph - N/A Snow Light Snow
3:54 AM 30.2 °F 19.8 °F 24.8 °F 80% 29.87 in 7.0 mi WNW 13.8 mph 20.7 mph N/A Snow Light Snow
4:15 AM 30.2 °F 18.5 °F 26.6 °F 86% 29.87 in 5.0 mi WNW 17.3 mph - N/A Snow Light Snow
4:34 AM 30.2 °F 18.1 °F 24.8 °F 80% 29.87 in 7.0 mi West 18.4 mph 24.2 mph N/A Snow Light Snow
4:54 AM 30.2 °F 18.1 °F 24.8 °F 80% 29.88 in 5.0 mi West 18.4 mph 23.0 mph N/A Snow Light Snow
5:14 AM 30.2 °F 19.3 °F 26.6 °F 86% 29.89 in 1.5 mi WNW 15.0 mph 24.2 mph N/A Snow Light Snow
5:35 AM 30.2 °F 18.5 °F 26.6 °F 86% 29.89 in 4.0 mi West 17.3 mph 23.0 mph N/A Snow Light Snow
5:55 AM 30.2 °F 20.8 °F 26.6 °F 86% 29.90 in 3.0 mi West 11.5 mph 15.0 mph N/A Snow Light Snow
6:14 AM 30.2 °F 20.2 °F 26.6 °F 86% 29.90 in 4.0 mi West 12.7 mph 23.0 mph N/A Snow Light Snow
6:35 AM 30.2 °F 19.8 °F 24.8 °F 80% 29.91 in 5.0 mi West 13.8 mph 21.9 mph N/A Snow Light Snow
6:54 AM 30.2 °F 19.8 °F 24.8 °F 80% 29.91 in 7.0 mi WNW 13.8 mph 19.6 mph N/A Snow Light Snow
7:14 AM 30.2 °F 19.8 °F 24.8 °F 80% 29.92 in 7.0 mi WNW 13.8 mph - N/A Snow Light Snow
7:35 AM 30.2 °F 20.2 °F 23.0 °F 75% 29.92 in 10.0 mi West 12.7 mph - N/A Snow Light Snow
7:55 AM 30.2 °F 18.9 °F 21.2 °F 69% 29.93 in 10.0 mi West 16.1 mph 23.0 mph N/A Snow Light Snow
8:14 AM 30.2 °F 19.8 °F 21.2 °F 69% 29.93 in 10.0 mi West 13.8 mph 18.4 mph N/A   Overcast
8:35 AM 30.2 °F 19.8 °F 24.8 °F 80% 29.94 in 7.0 mi WNW 13.8 mph 19.6 mph N/A Snow Light Snow
8:55 AM 30.2 °F 19.3 °F 23.0 °F 75% 29.95 in 10.0 mi WNW 15.0 mph 19.6 mph N/A   Overcast
9:14 AM 30.2 °F 18.9 °F 23.0 °F 75% 29.95 in 10.0 mi West 16.1 mph 19.6 mph N/A   Overcast
9:35 AM 30.2 °F 20.8 °F 21.2 °F 69% 29.96 in 10.0 mi West 11.5 mph 17.3 mph N/A   Overcast
9:54 AM 30.2 °F 20.2 °F 23.0 °F 75% 29.96 in 7.0 mi WSW 12.7 mph - N/A Snow Light Snow
10:15 AM 30.2 °F 21.3 °F 23.0 °F 75% 29.97 in 5.0 mi West 10.4 mph - N/A Snow Light Snow
10:35 AM 30.2 °F 20.2 °F 23.0 °F 75% 29.98 in 7.0 mi WSW 12.7 mph - N/A Snow Light Snow
10:54 AM 30.2 °F 19.8 °F 23.0 °F 75% 29.98 in 3.0 mi West 13.8 mph 18.4 mph N/A Snow Light Snow
11:14 AM 30.2 °F 21.3 °F 23.0 °F 75% 29.99 in 5.0 mi WNW 10.4 mph - N/A Snow Light Snow
11:35 AM 30.2 °F 21.3 °F 24.8 °F 80% 29.99 in 2.0 mi WNW 10.4 mph 16.1 mph N/A Snow Light Snow
11:55 AM 28.4 °F 19.1 °F 24.8 °F 86% 29.99 in 2.5 mi WNW 10.4 mph - N/A Snow Light Snow
12:15 PM 28.4 °F 18.0 °F 26.6 °F 93% 29.99 in 1.5 mi WNW 12.7 mph 16.1 mph N/A Snow Light Snow
12:35 PM 30.2 °F 21.9 °F 24.8 °F 80% 29.99 in 4.0 mi West 9.2 mph - N/A Snow Light Snow
12:55 PM 30.2 °F 21.3 °F 24.8 °F 80% 29.99 in 7.0 mi WNW 10.4 mph - N/A Snow Light Snow
1:14 PM 30.2 °F 21.3 °F 24.8 °F 80% 29.99 in 4.0 mi WNW 10.4 mph - N/A Snow Light Snow
1:34 PM 30.2 °F 21.3 °F 24.8 °F 80% 29.99 in 2.5 mi WNW 10.4 mph - N/A Snow Light Snow
1:54 PM 30.2 °F 18.5 °F 23.0 °F 75% 29.99 in 7.0 mi WSW 17.3 mph 21.9 mph N/A Snow Light Snow
2:15 PM 30.2 °F 18.5 °F 23.0 °F 75% 30.00 in 10.0 mi West 17.3 mph - N/A   Overcast
2:35 PM 30.2 °F 19.3 °F 23.0 °F 75% 30.00 in 10.0 mi West 15.0 mph - N/A   Overcast
2:55 PM 28.4 °F 18.0 °F 23.0 °F 80% 30.01 in 10.0 mi West 12.7 mph - N/A   Overcast
3:15 PM 28.4 °F 19.1 °F 21.2 °F 74% 30.02 in 10.0 mi West 10.4 mph 17.3 mph N/A   Overcast
3:35 PM 28.4 °F 18.0 °F 21.2 °F 74% 30.02 in 10.0 mi West 12.7 mph - N/A Snow Light Snow
3:55 PM 28.4 °F 18.0 °F 21.2 °F 74% 30.03 in 10.0 mi West 12.7 mph 16.1 mph N/A   Overcast
4:14 PM 28.4 °F 19.7 °F 21.2 °F 74% 30.04 in 10.0 mi WSW 9.2 mph - N/A   Overcast
4:34 PM 28.4 °F 19.1 °F 23.0 °F 80% 30.05 in 10.0 mi West 10.4 mph - N/A   Overcast
4:54 PM 28.4 °F 18.5 °F 23.0 °F 80% 30.05 in 10.0 mi West 11.5 mph - N/A   Overcast
5:14 PM 30.2 °F 20.2 °F 23.0 °F 75% 30.05 in 10.0 mi WNW 12.7 mph 17.3 mph N/A Snow Light Snow
5:34 PM 30.2 °F 23.4 °F 21.2 °F 69% 30.06 in 7.0 mi West 6.9 mph - N/A Snow Light Snow
5:55 PM 28.4 °F 19.1 °F 23.0 °F 80% 30.07 in 7.0 mi West 10.4 mph - N/A Snow Light Snow
6:15 PM 30.2 °F 23.4 °F 23.0 °F 75% 30.07 in 10.0 mi West 6.9 mph - N/A Snow Light Snow
6:34 PM 30.2 °F 19.8 °F 21.2 °F 69% 30.07 in 10.0 mi West 13.8 mph - N/A   Overcast
6:55 PM 28.4 °F 19.7 °F 21.2 °F 74% 30.07 in 10.0 mi WSW 9.2 mph - N/A   Overcast
7:15 PM 30.2 °F 21.9 °F 21.2 °F 69% 30.08 in 10.0 mi West 9.2 mph - N/A Snow Light Snow
7:34 PM 28.4 °F 18.5 °F 21.2 °F 74% 30.09 in 10.0 mi West 11.5 mph 16.1 mph N/A   Overcast
7:55 PM 28.4 °F 21.2 °F 21.2 °F 74% 30.09 in 10.0 mi WSW 6.9 mph - N/A   Overcast
8:14 PM 28.4 °F 22.2 °F 23.0 °F 80% 30.09 in 10.0 mi West 5.8 mph - N/A Snow Light Snow
8:35 PM 30.2 °F 21.9 °F 21.2 °F 69% 30.09 in 10.0 mi West 9.2 mph - N/A   Overcast
8:54 PM 30.2 °F 24.3 °F 21.2 °F 69% 30.09 in 10.0 mi West 5.8 mph - N/A   Overcast
9:14 PM 30.2 °F 21.9 °F 21.2 °F 69% 30.09 in 10.0 mi WNW 9.2 mph - N/A Snow Light Snow
9:34 PM 30.2 °F 24.3 °F 21.2 °F 69% 30.09 in 10.0 mi NW 5.8 mph - N/A Snow Light Snow
9:54 PM 30.2 °F 20.8 °F 23.0 °F 75% 30.09 in 10.0 mi NW 11.5 mph - N/A   Overcast
10:15 PM 30.2 °F 22.6 °F 23.0 °F 75% 30.09 in 5.0 mi NW 8.1 mph - N/A Snow Light Snow
10:35 PM 30.2 °F 20.2 °F 23.0 °F 75% 30.09 in 7.0 mi NNW 12.7 mph - N/A Snow Light Snow
10:55 PM 30.2 °F 20.8 °F 21.2 °F 69% 30.09 in 10.0 mi NNW 11.5 mph - N/A   Overcast
11:14 PM 30.2 °F 20.2 °F 21.2 °F 69% 30.09 in 10.0 mi NW 12.7 mph - N/A   Overcast
11:35 PM 30.2 °F 21.3 °F 21.2 °F 69% 30.10 in 10.0 mi NW 10.4 mph 18.4 mph N/A   Overcast
11:54 PM 30.2 °F 21.9 °F 19.4 °F 64% 30.10 in 10.0 mi WNW 9.2 mph - N/A   Overcast